Location: Chochol
(49.7771°N, 14.9780°E)
Time: 05:17:04
(UTC+00:00)

Mayak - Pass Details

Date: 09 April 2020
Orbit: 581 x 601 km, 97.5° (Epoch: 29 May)

Event Time Altitude Azimuth Distance (km) Brightness Sun altitude
Rises 22:00:43 0° 7° (N) 2,825 ? -30.7°
Reaches altitude 10° 22:02:59 10° 359° (N) 1,917 ? -30.8°
Enters shadow 22:05:29 30° 333° (NNW) 1,074 ? -30.9°
